Time,TemperatureF,DewpointF,PressureIn,WindDirection,WindDirectionDegrees,WindSpeedMPH,WindSpeedGustMPH,Humidity,HourlyPrecipIn,Conditions,Clouds,dailyrainin,SoftwareType,DateUTC
2013-05-26 00:00:00,49.6,40.6,29.93,North,10,0.0,0.0,71,0.00,CLR,SCT,0.00,WeatherDisplay:10.37,2013-05-26 07:00:00,
2013-05-26 00:05:00,48.9,40.6,29.93,North,10,0.0,0.0,73,0.00,CLR,SCT,0.00,WeatherDisplay:10.37,2013-05-26 07:05:00,
2013-05-26 00:11:00,48.7,41.2,29.93,North,10,0.0,0.0,75,0.00,CLR,SCT,0.00,WeatherDisplay:10.37,2013-05-26 07:11:00,
2013-05-26 00:16:00,48.6,41.0,29.93,North,10,0.0,0.0,75,0.00,CLR,SCT,0.00,WeatherDisplay:10.37,2013-05-26 07:16:00,
2013-05-26 00:21:00,48.6,41.0,29.93,North,10,0.0,0.0,75,0.00,CLR,SCT,0.00,WeatherDisplay:10.37,2013-05-26 07:21:00,
2013-05-26 00:26:00,48.2,41.0,29.93,North,10,0.0,0.0,76,0.00,CLR,SCT,0.00,WeatherDisplay:10.37,2013-05-26 07:26:00,
2013-05-26 00:32:00,48.2,41.3,29.93,North,7,3.5,3.5,77,0.00,CLR,SCT,0.00,WeatherDisplay:10.37,2013-05-26 07:32:00,
2013-05-26 00:37:00,47.8,41.3,29.93,North,7,0.0,2.2,78,0.00,CLR,SCT,0.00,WeatherDisplay:10.37,2013-05-26 07:37:00,
2013-05-26 00:42:00,48.0,41.8,29.93,West,271,3.5,3.6,79,0.00,CLR,SCT,0.00,WeatherDisplay:10.37,2013-05-26 07:42:00,
2013-05-26 00:47:00,48.0,42.1,29.93,West,271,3.5,3.6,80,0.00,CLR,SCT,0.00,WeatherDisplay:10.37,2013-05-26 07:47:00,
2013-05-26 00:53:00,48.0,41.8,29.93,West,259,4.6,4.6,79,0.00,CLR,SCT,0.00,WeatherDisplay:10.37,2013-05-26 07:53:00,
2013-05-26 00:58:00,48.2,41.7,29.93,WSW,257,3.5,3.5,78,0.00,CLR,SCT,0.00,WeatherDisplay:10.37,2013-05-26 07:58:00,
2013-05-26 01:03:00,48.2,41.7,29.93,WSW,255,2.3,2.7,78,0.00,CLR,SCT,0.00,WeatherDisplay:10.37,2013-05-26 08:03:00,
2013-05-26 01:08:00,48.2,41.7,29.93,WSW,243,2.3,3.1,78,0.00,CLR,SCT,0.00,WeatherDisplay:10.37,2013-05-26 08:08:00,
2013-05-26 01:14:00,48.2,42.0,29.93,SW,230,5.8,5.8,79,0.00,CLR,SCT,0.00,WeatherDisplay:10.37,2013-05-26 08:14:00,
2013-05-26 01:19:00,48.2,42.0,29.93,WSW,241,3.5,3.6,79,0.00,CLR,SCT,0.00,WeatherDisplay:10.37,2013-05-26 08:19:00,
2013-05-26 01:24:00,48.2,42.0,29.93,WSW,247,5.8,5.8,79,0.00,CLR,SCT,0.00,WeatherDisplay:10.37,2013-05-26 08:24:00,
2013-05-26 01:29:00,48.4,41.8,29.93,WSW,248,3.5,3.6,78,0.00,CLR,SCT,0.00,WeatherDisplay:10.37,2013-05-26 08:29:00,
2013-05-26 01:34:00,48.4,41.8,29.93,WSW,238,3.5,0.0,78,0.00,CLR,SCT,0.00,WeatherDisplay:10.37,2013-05-26 08:34:00,
2013-05-26 01:39:00,48.4,41.8,29.93,WSW,238,2.3,2.3,78,0.00,CLR,SCT,0.00,WeatherDisplay:10.37,2013-05-26 08:39:00,
2013-05-26 01:44:00,48.6,42.0,29.93,WSW,238,3.5,3.5,78,0.00,CLR,SCT,0.00,WeatherDisplay:10.37,2013-05-26 08:44:00,
2013-05-26 01:50:00,48.6,42.3,29.93,SW,223,3.5,3.5,79,0.00,CLR,SCT,0.00,WeatherDisplay:10.37,2013-05-26 08:50:00,
2013-05-26 01:55:00,48.6,42.3,29.93,SSW,199,3.5,3.5,79,0.00,CLR,SCT,0.00,WeatherDisplay:10.37,2013-05-26 08:55:00,
2013-05-26 02:00:00,48.6,43.0,29.93,SSW,199,3.5,0.0,81,0.00,CLR,SCT,0.00,WeatherDisplay:10.37,2013-05-26 09:00:00,
2013-05-26 02:05:00,48.4,42.8,29.93,SSW,206,0.0,0.0,81,0.00,CLR,SCT,0.00,WeatherDisplay:10.37,2013-05-26 09:05:00,
2013-05-26 02:10:00,48.6,43.0,29.93,SSW,206,0.0,0.0,81,0.00,CLR,SCT,0.00,WeatherDisplay:10.37,2013-05-26 09:10:00,
2013-05-26 02:15:00,48.4,42.8,29.93,SSW,206,0.0,0.0,81,0.00,CLR,SCT,0.00,WeatherDisplay:10.37,2013-05-26 09:15:00,
2013-05-26 02:20:00,48.4,42.8,29.90,SSW,206,0.0,0.0,81,0.00,CLR,SCT,0.00,WeatherDisplay:10.37,2013-05-26 09:20:00,
2013-05-26 02:25:00,48.4,43.1,29.90,SSW,206,0.0,0.0,82,0.00,CLR,SCT,0.00,WeatherDisplay:10.37,2013-05-26 09:25:00,
2013-05-26 02:30:00,48.4,43.1,29.90,SSW,206,0.0,0.0,82,0.00,CLR,SCT,0.00,WeatherDisplay:10.37,2013-05-26 09:30:00,
2013-05-26 02:36:00,48.4,43.1,29.90,SSW,206,0.0,0.0,82,0.00,CLR,SCT,0.00,WeatherDisplay:10.37,2013-05-26 09:36:00,
2013-05-26 02:41:00,48.4,44.4,29.90,SSW,206,0.0,0.0,86,0.00,CLR,SCT,0.00,WeatherDisplay:10.37,2013-05-26 09:41:00,
2013-05-26 02:46:00,48.4,44.4,29.90,SSW,206,0.0,0.0,86,0.00,CLR,SCT,0.00,WeatherDisplay:10.37,2013-05-26 09:46:00,
2013-05-26 02:51:00,48.2,44.5,29.90,SSW,206,0.0,0.0,87,0.00,CLR,SCT,0.00,WeatherDisplay:10.37,2013-05-26 09:51:00,
2013-05-26 02:56:00,48.2,44.5,29.90,SSW,206,0.0,0.0,87,0.00,CLR,SCT,0.00,WeatherDisplay:10.37,2013-05-26 09:56:00,
2013-05-26 03:01:00,48.2,45.1,29.90,SSW,210,2.3,0.0,89,0.00,CLR,SCT,0.00,WeatherDisplay:10.37,2013-05-26 10:01:00,
2013-05-26 03:06:00,48.2,45.1,29.90,SSW,210,0.0,0.0,89,0.00,CLR,SCT,0.00,WeatherDisplay:10.37,2013-05-26 10:06:00,
2013-05-26 03:12:00,48.2,45.1,29.90,SSW,210,0.0,0.0,89,0.00,CLR,SCT,0.00,WeatherDisplay:10.37,2013-05-26 10:12:00,
2013-05-26 03:17:00,48.2,45.1,29.90,SSW,210,0.0,0.0,89,0.00,CLR,SCT,0.00,WeatherDisplay:10.37,2013-05-26 10:17:00,
2013-05-26 03:22:00,48.0,45.2,29.90,SSW,210,0.0,0.0,90,0.00,CLR,SCT,0.00,WeatherDisplay:10.37,2013-05-26 10:22:00,
2013-05-26 03:27:00,48.0,45.2,29.90,SSW,210,0.0,0.0,90,0.00,CLR,SCT,0.00,WeatherDisplay:10.37,2013-05-26 10:27:00,
2013-05-26 03:32:00,48.0,45.2,29.90,SSW,210,0.0,0.0,90,0.00,CLR,SCT,0.00,WeatherDisplay:10.37,2013-05-26 10:32:00,
2013-05-26 03:37:00,48.2,45.1,29.90,SSW,210,0.0,0.0,89,0.00,CLR,SCT,0.00,WeatherDisplay:10.37,2013-05-26 10:37:00,
2013-05-26 03:42:00,48.2,45.1,29.90,SSW,210,0.0,0.0,89,0.00,CLR,SCT,0.00,WeatherDisplay:10.37,2013-05-26 10:42:00,
2013-05-26 03:47:00,48.2,45.1,29.90,SSW,210,0.0,0.0,89,0.00,CLR,SCT,0.00,WeatherDisplay:10.37,2013-05-26 10:47:00,
2013-05-26 03:52:00,48.2,45.1,29.90,SSW,210,0.0,0.0,89,0.00,CLR,SCT,0.00,WeatherDisplay:10.37,2013-05-26 10:52:00,
2013-05-26 03:58:00,48.2,45.1,29.90,SSW,210,0.0,0.0,89,0.00,CLR,SCT,0.00,WeatherDisplay:10.37,2013-05-26 10:58:00,
2013-05-26 04:03:00,48.2,45.1,29.90,SSW,210,0.0,0.0,89,0.00,CLR,SCT,0.04,WeatherDisplay:10.37,2013-05-26 11:03:00,
2013-05-26 04:08:00,48.2,45.1,29.90,SSW,210,0.0,0.0,89,0.04,RA,SCT,0.04,WeatherDisplay:10.37,2013-05-26 11:08:00,
2013-05-26 04:13:00,48.2,45.1,29.90,SSW,210,0.0,0.0,89,0.04,,SCT,0.04,WeatherDisplay:10.37,2013-05-26 11:13:00,
2013-05-26 04:18:00,48.2,45.1,29.90,SSW,210,0.0,0.0,89,0.04,CLR,SCT,0.04,WeatherDisplay:10.37,2013-05-26 11:18:00,
2013-05-26 04:24:00,48.2,45.1,29.90,SSW,210,0.0,0.0,89,0.04,CLR,SCT,0.04,WeatherDisplay:10.37,2013-05-26 11:24:00,
2013-05-26 04:29:00,48.2,45.1,29.90,SSW,210,0.0,0.0,89,0.04,CLR,SCT,0.04,WeatherDisplay:10.37,2013-05-26 11:29:00,
2013-05-26 04:34:00,48.2,45.1,29.90,SSW,210,0.0,0.0,89,0.04,CLR,SCT,0.04,WeatherDisplay:10.37,2013-05-26 11:34:00,
2013-05-26 04:39:00,48.2,45.1,29.90,SSW,210,0.0,0.0,89,0.04,CLR,SCT,0.04,WeatherDisplay:10.37,2013-05-26 11:39:00,
2013-05-26 04:44:00,48.2,45.4,29.90,SSW,210,0.0,0.0,90,0.04,CLR,SCT,0.04,WeatherDisplay:10.37,2013-05-26 11:44:00,
2013-05-26 04:49:00,48.2,45.7,29.90,ESE,106,2.3,2.3,91,0.04,CLR,SCT,0.04,WeatherDisplay:10.37,2013-05-26 11:49:00,
2013-05-26 04:54:00,48.2,46.0,29.90,ENE,74,3.5,3.5,92,0.04,CLR,SCT,0.04,WeatherDisplay:10.37,2013-05-26 11:54:00,
2013-05-26 05:00:00,48.2,46.0,29.90,ENE,76,2.3,0.0,92,0.04,CLR,SCT,0.04,WeatherDisplay:10.37,2013-05-26 12:00:00,
2013-05-26 05:05:00,48.0,46.1,29.90,ENE,76,0.0,0.0,93,0.00,CLR,SCT,0.04,WeatherDisplay:10.37,2013-05-26 12:05:00,
2013-05-26 05:10:00,48.0,46.1,29.90,ENE,76,0.0,0.0,93,0.00,CLR,SCT,0.04,WeatherDisplay:10.37,2013-05-26 12:10:00,
2013-05-26 05:15:00,48.2,46.3,29.90,ENE,76,0.0,0.0,93,0.00,CLR,SCT,0.04,WeatherDisplay:10.37,2013-05-26 12:15:00,
2013-05-26 05:21:00,48.2,46.0,29.90,ENE,76,0.0,0.0,92,0.00,CLR,SCT,0.04,WeatherDisplay:10.37,2013-05-26 12:21:00,
2013-05-26 05:26:00,48.2,46.0,29.90,NE,46,0.0,0.0,92,0.00,CLR,SCT,0.04,WeatherDisplay:10.37,2013-05-26 12:26:00,
2013-05-26 05:31:00,48.0,46.1,29.90,NNW,332,3.5,3.5,93,0.00,CLR,SCT,0.04,WeatherDisplay:10.37,2013-05-26 12:31:00,
2013-05-26 05:36:00,48.0,46.1,29.90,NNW,333,2.3,0.0,93,0.00,CLR,SCT,0.04,WeatherDisplay:10.37,2013-05-26 12:36:00,
2013-05-26 05:41:00,48.0,46.1,29.90,NNW,340,2.3,2.3,93,0.00,CLR,SCT,0.04,WeatherDisplay:10.37,2013-05-26 12:41:00,
2013-05-26 05:46:00,48.0,46.1,29.90,NNW,345,3.5,3.5,93,0.00,CLR,SCT,0.04,WeatherDisplay:10.37,2013-05-26 12:46:00,
2013-05-26 05:52:00,48.0,46.4,29.90,NNW,345,0.0,0.0,94,0.00,CLR,SCT,0.04,WeatherDisplay:10.37,2013-05-26 12:52:00,
2013-05-26 05:57:00,48.0,46.4,29.90,NNW,343,2.3,0.0,94,0.00,CLR,SCT,0.04,WeatherDisplay:10.37,2013-05-26 12:57:00,
2013-05-26 06:02:00,48.0,46.4,29.90,NNW,343,2.3,0.0,94,0.00,CLR,SCT,0.08,WeatherDisplay:10.37,2013-05-26 13:02:00,
2013-05-26 06:07:00,48.0,46.4,29.90,North,0,2.7,0.0,94,0.04,RA,SCT,0.08,WeatherDisplay:10.37,2013-05-26 13:07:00,
2013-05-26 06:12:00,48.0,46.4,29.90,North,1,0.0,0.0,94,0.04,,SCT,0.08,WeatherDisplay:10.37,2013-05-26 13:12:00,
2013-05-26 06:17:00,48.0,46.4,29.90,North,1,0.0,0.0,94,0.04,CLR,SCT,0.08,WeatherDisplay:10.37,2013-05-26 13:17:00,
2013-05-26 06:22:00,48.0,46.4,29.90,North,0,0.0,0.0,94,0.04,CLR,SCT,0.08,WeatherDisplay:10.37,2013-05-26 13:22:00,
2013-05-26 06:27:00,48.0,46.4,29.90,North,0,3.5,0.0,94,0.04,CLR,SCT,0.08,WeatherDisplay:10.37,2013-05-26 13:27:00,
2013-05-26 06:32:00,48.0,46.4,29.90,North,0,0.0,0.0,94,0.04,CLR,SCT,0.08,WeatherDisplay:10.37,2013-05-26 13:32:00,
2013-05-26 06:38:00,48.2,46.3,29.90,North,0,0.0,0.0,93,0.04,CLR,SCT,0.08,WeatherDisplay:10.37,2013-05-26 13:38:00,
2013-05-26 06:43:00,48.2,46.3,29.90,North,0,0.0,0.0,93,0.04,CLR,SCT,0.08,WeatherDisplay:10.37,2013-05-26 13:43:00,
2013-05-26 06:48:00,48.2,46.3,29.90,NNE,15,0.0,0.0,93,0.04,CLR,SCT,0.08,WeatherDisplay:10.37,2013-05-26 13:48:00,
2013-05-26 06:53:00,48.2,46.6,29.90,NE,50,3.5,3.5,94,0.04,CLR,SCT,0.08,WeatherDisplay:10.37,2013-05-26 13:53:00,
2013-05-26 06:58:00,48.2,46.6,29.93,NE,50,3.5,3.5,94,0.04,CLR,SCT,0.08,WeatherDisplay:10.37,2013-05-26 13:58:00,
2013-05-26 07:03:00,48.2,46.6,29.93,NE,50,0.0,0.0,94,0.00,CLR,SCT,0.08,WeatherDisplay:10.37,2013-05-26 14:03:00,
2013-05-26 07:09:00,48.2,46.6,29.93,NE,50,0.0,0.0,94,0.00,CLR,SCT,0.08,WeatherDisplay:10.37,2013-05-26 14:09:00,
2013-05-26 07:14:00,48.2,46.6,29.93,NE,50,0.0,0.0,94,0.00,CLR,SCT,0.08,WeatherDisplay:10.37,2013-05-26 14:14:00,
2013-05-26 07:19:00,48.4,46.7,29.93,NE,50,0.0,0.0,94,0.00,CLR,SCT,0.08,WeatherDisplay:10.37,2013-05-26 14:19:00,
2013-05-26 07:24:00,48.6,46.9,29.93,NE,50,0.0,0.0,94,0.00,CLR,SCT,0.08,WeatherDisplay:10.37,2013-05-26 14:24:00,
2013-05-26 07:29:00,48.6,46.9,29.93,NE,50,0.0,0.0,94,0.00,CLR,SCT,0.08,WeatherDisplay:10.37,2013-05-26 14:29:00,
2013-05-26 07:35:00,48.6,46.9,29.93,NE,50,0.0,0.0,94,0.00,CLR,SCT,0.08,WeatherDisplay:10.37,2013-05-26 14:35:00,
2013-05-26 07:40:00,48.9,47.3,29.93,NE,50,0.0,0.0,94,0.00,CLR,SCT,0.08,WeatherDisplay:10.37,2013-05-26 14:40:00,
2013-05-26 07:45:00,49.3,47.9,29.93,NE,50,0.0,0.0,95,0.00,CLR,SCT,0.08,WeatherDisplay:10.37,2013-05-26 14:45:00,
2013-05-26 07:50:00,49.6,48.3,29.93,NE,50,0.0,0.0,95,0.00,CLR,SCT,0.08,WeatherDisplay:10.37,2013-05-26 14:50:00,
2013-05-26 07:56:00,49.8,48.4,29.93,NE,50,0.0,0.0,95,0.00,CLR,SCT,0.08,WeatherDisplay:10.37,2013-05-26 14:56:00,
2013-05-26 08:01:00,50.2,48.5,29.93,NE,45,0.0,0.0,94,0.00,CLR,SCT,0.08,WeatherDisplay:10.37,2013-05-26 15:01:00,
2013-05-26 08:06:00,50.4,48.7,29.93,NE,45,0.0,0.0,94,0.00,CLR,SCT,0.08,WeatherDisplay:10.37,2013-05-26 15:06:00,
2013-05-26 08:11:00,50.4,48.1,29.93,NE,45,0.0,0.0,92,0.00,CLR,SCT,0.08,WeatherDisplay:10.37,2013-05-26 15:11:00,
2013-05-26 08:17:00,50.9,48.4,29.93,NE,45,0.0,0.0,91,0.00,CLR,SCT,0.08,WeatherDisplay:10.37,2013-05-26 15:17:00,
2013-05-26 08:22:00,51.3,48.7,29.93,West,281,3.5,3.5,91,0.00,CLR,SCT,0.08,WeatherDisplay:10.37,2013-05-26 15:22:00,
2013-05-26 08:27:00,51.6,48.5,29.93,WNW,283,4.6,4.6,89,0.00,CLR,SCT,0.08,WeatherDisplay:10.37,2013-05-26 15:27:00,
2013-05-26 08:32:00,50.9,43.3,29.93,West,275,6.9,6.9,75,0.00,CLR,SCT,0.08,WeatherDisplay:10.37,2013-05-26 15:32:00,
2013-05-26 08:37:00,50.9,42.6,29.93,SSW,207,8.1,8.1,73,0.00,CLR,SCT,0.08,WeatherDisplay:10.37,2013-05-26 15:37:00,
2013-05-26 08:42:00,50.7,42.4,29.93,West,279,3.5,3.6,73,0.00,CLR,SCT,0.08,WeatherDisplay:10.37,2013-05-26 15:42:00,
2013-05-26 08:47:00,50.7,42.4,29.93,West,259,8.1,8.1,73,0.00,CLR,SCT,0.08,WeatherDisplay:10.37,2013-05-26 15:47:00,
2013-05-26 08:52:00,50.7,42.7,29.93,West,279,5.8,5.8,74,0.00,CLR,SCT,0.08,WeatherDisplay:10.37,2013-05-26 15:52:00,
2013-05-26 08:57:00,50.4,41.7,29.93,West,262,5.8,5.8,72,0.00,CLR,SCT,0.08,WeatherDisplay:10.37,2013-05-26 15:57:00,
2013-05-26 09:02:00,50.2,42.2,29.93,West,272,0.0,0.0,74,0.00,CLR,SCT,0.08,WeatherDisplay:10.37,2013-05-26 16:02:00,
2013-05-26 09:08:00,50.0,42.4,29.93,West,276,2.7,0.0,75,0.00,CLR,SCT,0.08,WeatherDisplay:10.37,2013-05-26 16:08:00,
2013-05-26 09:13:00,50.2,42.6,29.93,West,276,2.0,5.0,75,0.00,CLR,SCT,0.08,WeatherDisplay:10.37,2013-05-26 16:13:00,
2013-05-26 09:18:00,50.2,42.9,29.93,West,272,2.3,0.0,76,0.00,CLR,SCT,0.08,WeatherDisplay:10.37,2013-05-26 16:18:00,
2013-05-26 09:23:00,50.0,40.6,29.93,West,268,3.5,3.5,70,0.00,CLR,SCT,0.08,WeatherDisplay:10.37,2013-05-26 16:23:00,
2013-05-26 09:29:00,50.4,42.7,29.96,WSW,253,7.2,7.2,75,0.00,CLR,SCT,0.08,WeatherDisplay:10.37,2013-05-26 16:29:00,
2013-05-26 09:34:00,50.7,41.3,29.96,SW,236,2.3,0.0,70,0.00,CLR,SCT,0.08,WeatherDisplay:10.37,2013-05-26 16:34:00,
2013-05-26 09:39:00,50.9,40.7,29.96,WSW,249,2.3,0.0,68,0.00,CLR,SCT,0.08,WeatherDisplay:10.37,2013-05-26 16:39:00,
2013-05-26 09:44:00,50.9,40.7,29.96,WSW,240,3.5,3.5,68,0.00,CLR,SCT,0.08,WeatherDisplay:10.37,2013-05-26 16:44:00,
2013-05-26 09:50:00,50.9,39.9,29.96,SW,235,4.6,4.6,66,0.00,CLR,SCT,0.08,WeatherDisplay:10.37,2013-05-26 16:50:00,
2013-05-26 09:55:00,50.9,40.7,29.96,SW,224,2.7,0.0,68,0.00,CLR,SCT,0.08,WeatherDisplay:10.37,2013-05-26 16:55:00,
2013-05-26 10:00:00,51.4,41.2,29.96,SW,232,3.5,0.0,68,0.00,CLR,SCT,0.08,WeatherDisplay:10.37,2013-05-26 17:00:00,
2013-05-26 10:05:00,51.8,40.8,29.96,SW,224,3.5,0.0,66,0.00,CLR,SCT,0.08,WeatherDisplay:10.37,2013-05-26 17:05:00,
2013-05-26 10:10:00,52.2,36.5,29.93,SW,233,9.2,9.2,55,0.00,CLR,SCT,0.08,WeatherDisplay:10.37,2013-05-26 17:10:00,
2013-05-26 10:15:00,53.1,38.7,29.93,SW,233,5.8,5.8,58,0.00,CLR,SCT,0.08,WeatherDisplay:10.37,2013-05-26 17:15:00,
2013-05-26 10:20:00,53.8,40.2,29.93,WNW,285,3.5,0.0,60,0.00,CLR,SCT,0.08,WeatherDisplay:10.37,2013-05-26 17:20:00,
2013-05-26 10:26:00,54.7,38.4,29.93,NW,322,5.8,5.8,54,0.00,CLR,SCT,0.08,WeatherDisplay:10.37,2013-05-26 17:26:00,
2013-05-26 10:31:00,55.8,37.4,29.93,WNW,297,6.9,6.9,50,0.00,CLR,SCT,0.08,WeatherDisplay:10.37,2013-05-26 17:31:00,
2013-05-26 10:36:00,57.0,38.5,29.93,NNW,340,4.6,4.6,50,0.00,CLR,SCT,0.08,WeatherDisplay:10.37,2013-05-26 17:36:00,
2013-05-26 10:41:00,57.6,37.5,29.93,NW,313,8.1,8.1,47,0.00,CLR,SCT,0.08,WeatherDisplay:10.37,2013-05-26 17:41:00,
2013-05-26 10:47:00,57.9,37.2,29.93,North,0,5.8,5.8,46,0.00,CLR,SCT,0.08,WeatherDisplay:10.37,2013-05-26 17:47:00,
2013-05-26 10:52:00,58.3,35.9,29.93,NW,307,5.8,5.8,43,0.00,CLR,SCT,0.08,WeatherDisplay:10.37,2013-05-26 17:52:00,
2013-05-26 10:57:00,58.6,37.9,29.93,SW,233,9.2,9.2,46,0.00,CLR,SCT,0.08,WeatherDisplay:10.37,2013-05-26 17:57:00,
2013-05-26 11:02:00,58.5,37.7,29.93,NW,324,5.8,5.8,46,0.00,CLR,SCT,0.08,WeatherDisplay:10.37,2013-05-26 18:02:00,
2013-05-26 11:07:00,59.0,35.9,29.93,West,267,10.1,10.1,42,0.00,CLR,SCT,0.08,WeatherDisplay:10.37,2013-05-26 18:07:00,
2013-05-26 11:13:00,60.3,39.4,29.93,West,271,5.8,5.8,46,0.00,CLR,SCT,0.08,WeatherDisplay:10.37,2013-05-26 18:13:00,
2013-05-26 11:18:00,61.0,35.2,29.93,WNW,286,11.5,11.5,38,0.00,CLR,SCT,0.08,WeatherDisplay:10.37,2013-05-26 18:18:00,
2013-05-26 11:23:00,60.8,34.3,29.93,WNW,291,12.7,12.7,37,0.00,CLR,SCT,0.08,WeatherDisplay:10.37,2013-05-26 18:23:00,
2013-05-26 11:28:00,61.7,35.1,29.93,SW,230,8.1,8.1,37,0.00,CLR,SCT,0.08,WeatherDisplay:10.37,2013-05-26 18:28:00,
2013-05-26 11:33:00,62.6,35.3,29.93,WNW,295,15.0,15.0,36,0.00,CLR,SCT,0.08,WeatherDisplay:10.37,2013-05-26 18:33:00,
2013-05-26 11:39:00,63.5,36.7,29.93,WSW,254,8.1,8.1,37,0.00,CLR,SCT,0.08,WeatherDisplay:10.37,2013-05-26 18:39:00,
2013-05-26 11:44:00,64.9,37.3,29.93,West,272,11.5,11.5,36,0.00,CLR,SCT,0.08,WeatherDisplay:10.37,2013-05-26 18:44:00,
2013-05-26 11:49:00,66.2,37.0,29.93,WNW,291,8.1,8.1,34,0.00,CLR,SCT,0.08,WeatherDisplay:10.37,2013-05-26 18:49:00,
2013-05-26 11:54:00,65.8,37.4,29.93,WSW,251,9.2,9.2,35,0.00,CLR,SCT,0.08,WeatherDisplay:10.37,2013-05-26 18:54:00,
2013-05-26 11:59:00,65.8,37.4,29.93,WNW,298,10.4,10.4,35,0.00,CLR,SCT,0.08,WeatherDisplay:10.37,2013-05-26 18:59:00,
2013-05-26 12:05:00,64.6,36.3,29.93,NW,326,9.2,9.2,35,0.00,CLR,SCT,0.08,WeatherDisplay:10.37,2013-05-26 19:05:00,
2013-05-26 12:10:00,63.9,35.7,29.93,NW,321,12.7,12.7,35,0.00,CLR,SCT,0.08,WeatherDisplay:10.37,2013-05-26 19:10:00,
2013-05-26 12:15:00,63.5,35.3,29.93,WSW,239,11.5,11.5,35,0.00,CLR,SCT,0.08,WeatherDisplay:10.37,2013-05-26 19:15:00,
2013-05-26 12:20:00,64.0,35.8,29.93,West,262,11.5,11.5,35,0.00,CLR,SCT,0.08,WeatherDisplay:10.37,2013-05-26 19:20:00,
2013-05-26 12:25:00,64.8,36.5,29.93,NW,319,10.4,10.4,35,0.00,CLR,SCT,0.08,WeatherDisplay:10.37,2013-05-26 19:25:00,
2013-05-26 12:31:00,64.9,35.9,29.93,West,259,12.7,12.7,34,0.00,CLR,SCT,0.08,WeatherDisplay:10.37,2013-05-26 19:31:00,
2013-05-26 12:36:00,64.6,35.6,29.93,WSW,238,10.4,10.4,34,0.00,CLR,SCT,0.08,WeatherDisplay:10.37,2013-05-26 19:36:00,
2013-05-26 12:41:00,65.3,36.2,29.93,WSW,242,10.4,10.4,34,0.00,CLR,SCT,0.08,WeatherDisplay:10.37,2013-05-26 19:41:00,
2013-05-26 12:46:00,65.8,36.7,29.93,WNW,284,12.7,12.7,34,0.00,CLR,SCT,0.08,WeatherDisplay:10.37,2013-05-26 19:46:00,
2013-05-26 12:51:00,66.2,37.0,29.93,West,277,5.8,5.8,34,0.00,CLR,SCT,0.08,WeatherDisplay:10.37,2013-05-26 19:51:00,
2013-05-26 12:57:00,66.2,36.2,29.93,West,275,8.1,8.1,33,0.00,CLR,SCT,0.08,WeatherDisplay:10.37,2013-05-26 19:57:00,
2013-05-26 13:02:00,67.5,37.3,29.93,NW,308,9.2,9.2,33,0.00,CLR,SCT,0.08,WeatherDisplay:10.37,2013-05-26 20:02:00,
2013-05-26 13:07:00,67.6,37.5,29.93,West,280,12.7,12.7,33,0.00,CLR,SCT,0.08,WeatherDisplay:10.37,2013-05-26 20:07:00,
2013-05-26 13:12:00,66.6,36.5,29.93,WNW,294,11.8,11.8,33,0.00,CLR,SCT,0.08,WeatherDisplay:10.37,2013-05-26 20:12:00,
2013-05-26 13:17:00,66.9,36.9,29.93,West,264,9.2,9.2,33,0.00,CLR,SCT,0.08,WeatherDisplay:10.37,2013-05-26 20:17:00,
2013-05-26 13:23:00,68.2,38.0,29.93,West,277,6.3,6.3,33,0.00,CLR,SCT,0.08,WeatherDisplay:10.37,2013-05-26 20:23:00,
2013-05-26 13:28:00,69.1,38.8,29.93,WNW,292,7.0,12.0,33,0.00,CLR,SCT,0.08,WeatherDisplay:10.37,2013-05-26 20:28:00,
2013-05-26 13:33:00,69.3,38.9,29.93,WNW,299,9.2,9.2,33,0.00,CLR,SCT,0.08,WeatherDisplay:10.37,2013-05-26 20:33:00,
2013-05-26 13:38:00,68.5,38.3,29.93,NW,322,8.1,8.7,33,0.00,CLR,SCT,0.08,WeatherDisplay:10.37,2013-05-26 20:38:00,
2013-05-26 13:43:00,67.5,37.3,29.93,WSW,257,13.8,13.8,33,0.00,CLR,SCT,0.08,WeatherDisplay:10.37,2013-05-26 20:43:00,
2013-05-26 13:49:00,67.3,37.2,29.93,WNW,291,12.3,12.3,33,0.00,CLR,SCT,0.08,WeatherDisplay:10.37,2013-05-26 20:49:00,
2013-05-26 13:54:00,67.3,37.2,29.93,WNW,302,12.7,12.7,33,0.00,CLR,SCT,0.08,WeatherDisplay:10.37,2013-05-26 20:54:00,
2013-05-26 13:59:00,68.2,38.0,29.93,WSW,240,12.7,12.7,33,0.00,CLR,SCT,0.08,WeatherDisplay:10.37,2013-05-26 20:59:00,
2013-05-26 14:04:00,68.5,38.3,29.93,WSW,247,5.8,5.8,33,0.00,CLR,SCT,0.08,WeatherDisplay:10.37,2013-05-26 21:04:00,
2013-05-26 14:09:00,68.7,38.4,29.93,West,264,17.0,17.0,33,0.00,CLR,SCT,0.08,WeatherDisplay:10.37,2013-05-26 21:09:00,
2013-05-26 14:14:00,68.7,38.4,29.93,WNW,299,10.4,10.4,33,0.00,CLR,SCT,0.08,WeatherDisplay:10.37,2013-05-26 21:14:00,
2013-05-26 14:20:00,68.9,38.6,29.93,WNW,284,10.4,10.4,33,0.00,CLR,SCT,0.08,WeatherDisplay:10.37,2013-05-26 21:20:00,
2013-05-26 14:25:00,69.4,39.1,29.93,NW,312,12.7,12.7,33,0.00,CLR,SCT,0.08,WeatherDisplay:10.37,2013-05-26 21:25:00,
2013-05-26 14:30:00,69.1,38.8,29.93,NW,322,10.4,10.4,33,0.00,CLR,SCT,0.08,WeatherDisplay:10.37,2013-05-26 21:30:00,
2013-05-26 14:35:00,68.7,38.4,29.93,WSW,249,5.8,5.8,33,0.00,CLR,SCT,0.08,WeatherDisplay:10.37,2013-05-26 21:35:00,
2013-05-26 14:40:00,68.9,38.6,29.93,NW,323,8.1,8.1,33,0.00,CLR,SCT,0.08,WeatherDisplay:10.37,2013-05-26 21:40:00,
2013-05-26 14:46:00,68.0,37.8,29.93,NW,305,15.0,15.0,33,0.00,CLR,SCT,0.08,WeatherDisplay:10.37,2013-05-26 21:46:00,
2013-05-26 14:51:00,68.4,38.1,29.93,West,262,12.7,12.7,33,0.00,CLR,SCT,0.08,WeatherDisplay:10.37,2013-05-26 21:51:00,
2013-05-26 14:56:00,68.9,38.6,29.93,West,259,9.2,9.2,33,0.00,CLR,SCT,0.08,WeatherDisplay:10.37,2013-05-26 21:56:00,
2013-05-26 15:01:00,70.2,38.9,29.93,West,276,15.0,15.0,32,0.00,CLR,SCT,0.08,WeatherDisplay:10.37,2013-05-26 22:01:00,
2013-05-26 15:06:00,70.2,38.9,29.93,SW,234,15.0,15.0,32,0.00,CLR,SCT,0.08,WeatherDisplay:10.37,2013-05-26 22:06:00,
2013-05-26 15:12:00,70.5,39.2,29.93,West,277,9.2,10.1,32,0.00,CLR,SCT,0.08,WeatherDisplay:10.37,2013-05-26 22:12:00,
2013-05-26 15:17:00,70.7,39.4,29.93,SW,222,11.5,11.5,32,0.00,CLR,SCT,0.08,WeatherDisplay:10.37,2013-05-26 22:17:00,
2013-05-26 15:22:00,70.3,39.1,29.93,West,270,15.0,15.0,32,0.00,CLR,SCT,0.08,WeatherDisplay:10.37,2013-05-26 22:22:00,
2013-05-26 15:27:00,70.0,38.8,29.93,WNW,299,9.2,9.2,32,0.00,CLR,SCT,0.08,WeatherDisplay:10.37,2013-05-26 22:27:00,
2013-05-26 15:32:00,68.9,38.6,29.93,WNW,294,15.0,15.0,33,0.00,CLR,SCT,0.08,WeatherDisplay:10.37,2013-05-26 22:32:00,
2013-05-26 15:38:00,68.5,38.3,29.93,NW,311,15.0,15.0,33,0.00,CLR,SCT,0.08,WeatherDisplay:10.37,2013-05-26 22:38:00,
2013-05-26 15:43:00,68.0,37.8,29.93,West,262,15.0,15.0,33,0.00,CLR,SCT,0.08,WeatherDisplay:10.37,2013-05-26 22:43:00,
2013-05-26 15:48:00,67.6,37.5,29.93,WSW,250,12.7,12.7,33,0.00,CLR,SCT,0.08,WeatherDisplay:10.37,2013-05-26 22:48:00,
2013-05-26 15:53:00,68.2,38.0,29.93,WSW,245,12.7,12.7,33,0.00,CLR,SCT,0.08,WeatherDisplay:10.37,2013-05-26 22:53:00,
2013-05-26 15:58:00,68.4,38.1,29.93,WSW,251,17.3,17.3,33,0.00,CLR,SCT,0.08,WeatherDisplay:10.37,2013-05-26 22:58:00,
2013-05-26 16:04:00,68.5,38.3,29.93,WNW,286,11.5,11.5,33,0.00,CLR,SCT,0.08,WeatherDisplay:10.37,2013-05-26 23:04:00,
2013-05-26 16:09:00,68.7,38.4,29.93,WNW,291,17.3,17.3,33,0.00,CLR,SCT,0.08,WeatherDisplay:10.37,2013-05-26 23:09:00,
2013-05-26 16:14:00,68.5,38.3,29.93,West,273,12.7,12.7,33,0.00,CLR,SCT,0.08,WeatherDisplay:10.37,2013-05-26 23:14:00,
2013-05-26 16:19:00,68.4,38.1,29.93,West,265,12.7,14.1,33,0.00,CLR,SCT,0.08,WeatherDisplay:10.37,2013-05-26 23:19:00,
2013-05-26 16:24:00,68.4,38.1,29.93,WSW,252,12.7,12.7,33,0.00,CLR,SCT,0.08,WeatherDisplay:10.37,2013-05-26 23:24:00,
2013-05-26 16:30:00,68.7,38.4,29.93,WNW,303,15.0,15.0,33,0.00,CLR,SCT,0.08,WeatherDisplay:10.37,2013-05-26 23:30:00,
2013-05-26 16:35:00,68.4,38.1,29.93,WSW,243,21.9,21.9,33,0.00,CLR,SCT,0.08,WeatherDisplay:10.37,2013-05-26 23:35:00,
2013-05-26 16:40:00,67.8,37.6,29.96,WNW,287,15.0,15.0,33,0.00,CLR,SCT,0.08,WeatherDisplay:10.37,2013-05-26 23:40:00,
2013-05-26 16:45:00,67.5,37.3,29.96,WSW,253,18.4,18.4,33,0.00,CLR,SCT,0.08,WeatherDisplay:10.37,2013-05-26 23:45:00,
2013-05-26 16:50:00,66.7,36.7,29.96,West,264,12.7,12.7,33,0.00,CLR,SCT,0.08,WeatherDisplay:10.37,2013-05-26 23:50:00,
2013-05-26 16:55:00,66.6,36.5,29.96,SW,227,19.6,19.6,33,0.00,CLR,SCT,0.08,WeatherDisplay:10.37,2013-05-26 23:55:00,
2013-05-26 17:01:00,67.1,37.0,29.96,WNW,285,9.2,9.2,33,0.00,CLR,SCT,0.08,WeatherDisplay:10.37,2013-05-27 00:01:00,
2013-05-26 17:06:00,67.3,37.2,29.96,WSW,256,16.1,16.1,33,0.00,CLR,SCT,0.08,WeatherDisplay:10.37,2013-05-27 00:06:00,
2013-05-26 17:11:00,67.6,37.5,29.96,WSW,247,17.3,17.3,33,0.00,CLR,SCT,0.08,WeatherDisplay:10.37,2013-05-27 00:11:00,
2013-05-26 17:16:00,66.9,36.9,29.96,NW,312,12.7,12.7,33,0.00,CLR,SCT,0.08,WeatherDisplay:10.37,2013-05-27 00:16:00,
2013-05-26 17:21:00,66.6,36.5,29.96,West,275,13.8,13.8,33,0.00,CLR,SCT,0.08,WeatherDisplay:10.37,2013-05-27 00:21:00,
2013-05-26 17:26:00,66.7,36.7,29.96,West,274,15.0,15.0,33,0.00,CLR,SCT,0.08,WeatherDisplay:10.37,2013-05-27 00:26:00,
2013-05-26 17:31:00,66.6,36.5,29.96,NW,313,17.3,17.3,33,0.00,CLR,SCT,0.08,WeatherDisplay:10.37,2013-05-27 00:31:00,
2013-05-26 17:36:00,66.4,36.4,29.96,WNW,290,12.7,12.7,33,0.00,CLR,SCT,0.08,WeatherDisplay:10.37,2013-05-27 00:36:00,
2013-05-26 17:42:00,66.7,36.7,29.96,West,278,17.3,17.3,33,0.00,CLR,SCT,0.08,WeatherDisplay:10.37,2013-05-27 00:42:00,
2013-05-26 17:47:00,66.0,36.8,29.96,West,272,17.3,17.3,34,0.00,CLR,SCT,0.08,WeatherDisplay:10.37,2013-05-27 00:47:00,
2013-05-26 17:52:00,64.9,35.9,29.96,West,267,12.7,12.7,34,0.00,CLR,SCT,0.08,WeatherDisplay:10.37,2013-05-27 00:52:00,
2013-05-26 17:57:00,64.6,35.6,29.96,West,262,10.4,10.9,34,0.00,CLR,SCT,0.08,WeatherDisplay:10.37,2013-05-27 00:57:00,
2013-05-26 18:02:00,64.9,35.9,29.96,WNW,286,16.1,16.1,34,0.00,CLR,SCT,0.08,WeatherDisplay:10.37,2013-05-27 01:02:00,
2013-05-26 18:07:00,64.8,35.7,29.96,WNW,291,15.0,15.0,34,0.00,CLR,SCT,0.08,WeatherDisplay:10.37,2013-05-27 01:07:00,
2013-05-26 18:13:00,64.8,35.7,29.96,WNW,286,11.5,11.5,34,0.00,CLR,SCT,0.08,WeatherDisplay:10.37,2013-05-27 01:13:00,
2013-05-26 18:18:00,65.1,36.0,29.96,WSW,247,12.7,12.7,34,0.00,CLR,SCT,0.08,WeatherDisplay:10.37,2013-05-27 01:18:00,
2013-05-26 18:23:00,64.6,35.6,29.96,WSW,246,17.3,17.3,34,0.00,CLR,SCT,0.08,WeatherDisplay:10.37,2013-05-27 01:23:00,
2013-05-26 18:28:00,64.4,35.4,29.96,WSW,246,12.7,12.7,34,0.00,CLR,SCT,0.08,WeatherDisplay:10.37,2013-05-27 01:28:00,
2013-05-26 18:33:00,64.4,35.4,29.96,West,266,15.0,15.0,34,0.00,CLR,SCT,0.08,WeatherDisplay:10.37,2013-05-27 01:33:00,
2013-05-26 18:39:00,64.2,35.2,29.96,West,278,12.7,12.7,34,0.00,CLR,SCT,0.08,WeatherDisplay:10.37,2013-05-27 01:39:00,
2013-05-26 18:44:00,63.5,34.6,29.96,West,271,15.0,15.0,34,0.00,CLR,SCT,0.08,WeatherDisplay:10.37,2013-05-27 01:44:00,
2013-05-26 18:49:00,62.6,33.8,29.96,West,268,15.0,15.0,34,0.00,CLR,SCT,0.08,WeatherDisplay:10.37,2013-05-27 01:49:00,
2013-05-26 18:54:00,62.2,34.2,29.96,WSW,251,15.0,15.0,35,0.00,CLR,SCT,0.08,WeatherDisplay:10.37,2013-05-27 01:54:00,
2013-05-26 18:59:00,62.1,34.1,29.96,West,275,10.5,10.5,35,0.00,CLR,SCT,0.08,WeatherDisplay:10.37,2013-05-27 01:59:00,
2013-05-26 19:05:00,61.7,33.7,29.96,WNW,292,15.0,15.0,35,0.00,CLR,SCT,0.08,WeatherDisplay:10.37,2013-05-27 02:05:00,
2013-05-26 19:10:00,61.2,33.3,29.96,West,264,12.7,12.7,35,0.00,CLR,SCT,0.08,WeatherDisplay:10.37,2013-05-27 02:10:00,
2013-05-26 19:15:00,61.2,33.3,29.96,WNW,282,19.6,19.6,35,0.00,CLR,SCT,0.08,WeatherDisplay:10.37,2013-05-27 02:15:00,
2013-05-26 19:20:00,60.6,32.8,29.96,WSW,258,15.4,15.4,35,0.00,CLR,SCT,0.08,WeatherDisplay:10.37,2013-05-27 02:20:00,
2013-05-26 19:26:00,60.4,32.6,29.96,WSW,251,13.8,13.8,35,0.00,CLR,SCT,0.08,WeatherDisplay:10.37,2013-05-27 02:26:00,
2013-05-26 19:31:00,60.1,32.3,29.96,WSW,258,12.7,12.7,35,0.00,CLR,SCT,0.08,WeatherDisplay:10.37,2013-05-27 02:31:00,
2013-05-26 19:36:00,59.7,32.7,29.96,NW,319,15.0,15.0,36,0.00,CLR,SCT,0.08,WeatherDisplay:10.37,2013-05-27 02:36:00,
2013-05-26 19:41:00,59.2,32.2,29.96,West,268,12.7,12.7,36,0.00,CLR,SCT,0.08,WeatherDisplay:10.37,2013-05-27 02:41:00,
2013-05-26 19:47:00,58.8,31.9,29.96,WSW,256,16.1,16.1,36,0.00,CLR,SCT,0.08,WeatherDisplay:10.37,2013-05-27 02:47:00,
2013-05-26 19:52:00,58.5,31.6,29.96,West,262,17.3,17.3,36,0.00,CLR,SCT,0.08,WeatherDisplay:10.37,2013-05-27 02:52:00,
2013-05-26 19:57:00,58.5,31.6,29.96,West,260,11.5,11.5,36,0.00,CLR,SCT,0.08,WeatherDisplay:10.37,2013-05-27 02:57:00,
2013-05-26 20:02:00,58.3,31.4,29.96,WSW,247,15.0,15.0,36,0.00,CLR,SCT,0.08,WeatherDisplay:10.37,2013-05-27 03:02:00,
2013-05-26 20:07:00,58.1,31.9,29.96,NNW,337,15.0,15.0,37,0.00,CLR,SCT,0.08,WeatherDisplay:10.37,2013-05-27 03:07:00,
2013-05-26 20:12:00,57.7,31.6,29.96,WNW,293,12.7,12.7,37,0.00,CLR,SCT,0.08,WeatherDisplay:10.37,2013-05-27 03:12:00,
2013-05-26 20:17:00,57.2,31.1,29.96,West,280,8.3,8.3,37,0.00,CLR,SCT,0.08,WeatherDisplay:10.37,2013-05-27 03:17:00,
2013-05-26 20:22:00,56.8,30.8,29.96,WNW,283,9.2,9.2,37,0.00,CLR,SCT,0.08,WeatherDisplay:10.37,2013-05-27 03:22:00,
2013-05-26 20:27:00,56.5,31.2,29.96,WNW,303,10.1,10.1,38,0.00,CLR,SCT,0.08,WeatherDisplay:10.37,2013-05-27 03:27:00,
2013-05-26 20:33:00,56.3,31.0,29.96,West,268,5.8,5.8,38,0.00,CLR,SCT,0.08,WeatherDisplay:10.37,2013-05-27 03:33:00,
2013-05-26 20:38:00,55.9,31.3,29.96,NW,321,9.2,9.6,39,0.00,CLR,SCT,0.08,WeatherDisplay:10.37,2013-05-27 03:38:00,
2013-05-26 20:43:00,55.6,31.0,29.99,WNW,283,5.8,5.8,39,0.00,CLR,SCT,0.08,WeatherDisplay:10.37,2013-05-27 03:43:00,
2013-05-26 20:49:00,55.2,31.3,29.99,West,272,8.1,8.1,40,0.00,CLR,SCT,0.08,WeatherDisplay:10.37,2013-05-27 03:49:00,
2013-05-26 20:54:00,55.0,31.1,29.99,WNW,289,5.8,5.8,40,0.00,CLR,SCT,0.08,WeatherDisplay:10.37,2013-05-27 03:54:00,
2013-05-26 20:59:00,54.9,31.6,29.99,NW,307,11.5,11.5,41,0.00,CLR,SCT,0.08,WeatherDisplay:10.37,2013-05-27 03:59:00,
2013-05-26 21:01:00,54.7,31.4,29.99,West,271,8.1,8.1,41,0.00,CLR,SCT,0.08,WeatherDisplay:10.37,2013-05-27 04:01:00,
2013-05-26 21:03:00,54.7,31.4,29.99,NW,320,8.1,8.1,41,0.00,CLR,SCT,0.08,WeatherDisplay:10.37,2013-05-27 04:03:00,
2013-05-26 21:08:00,54.3,31.1,29.99,NNW,334,10.4,10.4,41,0.00,CLR,SCT,0.08,WeatherDisplay:10.37,2013-05-27 04:08:00,
2013-05-26 21:13:00,54.0,31.4,29.99,North,0,8.0,8.0,42,0.00,CLR,SCT,0.08,WeatherDisplay:10.37,2013-05-27 04:13:00,
2013-05-26 21:19:00,53.8,31.2,29.99,West,281,5.8,5.8,42,0.00,CLR,SCT,0.08,WeatherDisplay:10.37,2013-05-27 04:19:00,
2013-05-26 21:24:00,53.6,31.6,29.99,NW,316,4.6,4.6,43,0.00,CLR,SCT,0.08,WeatherDisplay:10.37,2013-05-27 04:24:00,
2013-05-26 21:29:00,53.6,31.6,29.99,NW,307,3.5,3.6,43,0.00,CLR,SCT,0.08,WeatherDisplay:10.37,2013-05-27 04:29:00,
2013-05-26 21:34:00,53.4,32.0,29.99,NNW,335,5.8,5.8,44,0.00,CLR,SCT,0.08,WeatherDisplay:10.37,2013-05-27 04:34:00,
2013-05-26 21:39:00,53.4,31.5,29.99,NE,46,5.8,5.8,43,0.00,CLR,SCT,0.08,WeatherDisplay:10.37,2013-05-27 04:39:00,
2013-05-26 21:45:00,53.2,31.9,29.99,NE,45,3.5,3.5,44,0.00,CLR,SCT,0.08,WeatherDisplay:10.37,2013-05-27 04:45:00,
2013-05-26 21:50:00,53.1,31.7,29.99,NNW,338,3.5,3.5,44,0.00,CLR,SCT,0.08,WeatherDisplay:10.37,2013-05-27 04:50:00,
2013-05-26 21:55:00,52.7,31.9,29.99,North,7,3.5,3.5,45,0.00,CLR,SCT,0.08,WeatherDisplay:10.37,2013-05-27 04:55:00,
2013-05-26 22:00:00,52.3,32.2,29.99,NE,36,4.0,4.0,46,0.00,CLR,SCT,0.08,WeatherDisplay:10.37,2013-05-27 05:00:00,
2013-05-26 22:05:00,52.2,32.0,29.99,NE,36,0.0,0.0,46,0.00,CLR,SCT,0.08,WeatherDisplay:10.37,2013-05-27 05:05:00,
2013-05-26 22:10:00,52.0,31.8,29.99,NW,325,0.0,0.0,46,0.00,CLR,SCT,0.08,WeatherDisplay:10.37,2013-05-27 05:10:00,
2013-05-26 22:15:00,52.2,32.0,29.99,NW,322,0.0,0.0,46,0.00,CLR,SCT,0.08,WeatherDisplay:10.37,2013-05-27 05:15:00,
2013-05-26 22:21:00,52.2,32.0,29.99,NW,322,0.0,0.0,46,0.00,CLR,SCT,0.08,WeatherDisplay:10.37,2013-05-27 05:21:00,
2013-05-26 22:26:00,52.2,32.0,29.99,NW,322,0.0,0.0,46,0.00,CLR,SCT,0.08,WeatherDisplay:10.37,2013-05-27 05:26:00,
2013-05-26 22:31:00,52.0,31.8,29.99,NW,316,3.5,3.5,46,0.00,CLR,SCT,0.08,WeatherDisplay:10.37,2013-05-27 05:31:00,
2013-05-26 22:36:00,51.8,31.7,29.99,NW,316,0.0,0.0,46,0.00,CLR,SCT,0.08,WeatherDisplay:10.37,2013-05-27 05:36:00,
2013-05-26 22:41:00,51.6,32.0,29.99,NW,316,0.0,0.0,47,0.00,CLR,SCT,0.08,WeatherDisplay:10.37,2013-05-27 05:41:00,
2013-05-26 22:47:00,51.3,31.7,29.99,NW,316,2.3,0.0,47,0.00,CLR,SCT,0.08,WeatherDisplay:10.37,2013-05-27 05:47:00,
2013-05-26 22:52:00,50.9,31.4,29.99,SW,231,3.5,3.5,47,0.00,CLR,SCT,0.08,WeatherDisplay:10.37,2013-05-27 05:52:00,
2013-05-26 22:57:00,50.7,31.2,29.99,SW,231,0.0,0.0,47,0.00,CLR,SCT,0.08,WeatherDisplay:10.37,2013-05-27 05:57:00,
2013-05-26 23:02:00,50.5,31.0,29.99,SW,231,0.0,0.0,47,0.00,CLR,SCT,0.08,WeatherDisplay:10.37,2013-05-27 06:02:00,
2013-05-26 23:07:00,50.2,30.7,29.99,SW,231,0.0,0.0,47,0.00,CLR,SCT,0.08,WeatherDisplay:10.37,2013-05-27 06:07:00,
2013-05-26 23:13:00,50.0,31.1,29.99,SW,231,0.0,0.0,48,0.00,CLR,SCT,0.08,WeatherDisplay:10.37,2013-05-27 06:13:00,
2013-05-26 23:18:00,49.3,31.4,29.99,SW,231,3.6,3.6,50,0.00,CLR,SCT,0.08,WeatherDisplay:10.37,2013-05-27 06:18:00,
2013-05-26 23:23:00,48.7,31.4,29.99,SW,231,2.3,2.3,51,0.00,CLR,SCT,0.08,WeatherDisplay:10.37,2013-05-27 06:23:00,
2013-05-26 23:28:00,48.6,31.2,29.99,SW,231,2.7,2.7,51,0.00,CLR,SCT,0.08,WeatherDisplay:10.37,2013-05-27 06:28:00,
2013-05-26 23:33:00,48.0,31.7,29.99,SE,143,4.9,4.9,53,0.00,CLR,SCT,0.08,WeatherDisplay:10.37,2013-05-27 06:33:00,
2013-05-26 23:39:00,47.5,31.2,29.99,ESE,115,3.6,3.6,53,0.00,CLR,SCT,0.08,WeatherDisplay:10.37,2013-05-27 06:39:00,
2013-05-26 23:44:00,47.3,31.5,29.99,ESE,118,3.5,3.5,54,0.00,CLR,SCT,0.08,WeatherDisplay:10.37,2013-05-27 06:44:00,
2013-05-26 23:49:00,46.9,31.6,29.99,ESE,118,3.5,3.5,55,0.00,CLR,SCT,0.08,WeatherDisplay:10.37,2013-05-27 06:49:00,
2013-05-26 23:54:00,46.2,33.1,29.99,South,190,4.6,4.6,60,0.00,CLR,SCT,0.08,WeatherDisplay:10.37,2013-05-27 06:54:00,
2013-05-26 23:59:00,45.7,33.4,29.99,SSW,205,4.6,4.6,62,0.00,RA,SCT,0.00,WeatherDisplay:10.37,2013-05-27 06:59:00,